Weather History for Miami, FL

Change the Weather History Date:

Thursday, January 3, 2013

  Actual Average Record
Temperature  
Mean Temperature 76 °F 68 °F  
Max Temperature 82 °F 76 °F 86 °F (1967)
Min Temperature 69 °F 60 °F 35 °F (1898)
Degree Days  
Heating Degree Days 0 2  
Month to date heating degree days 0 6  
Since 1 July heating degree days 16 43  
Cooling Degree Days 11 5  
Month to date cooling degree days 27 15  
Year to date cooling degree days 27 15  
Growing Degree Days 26 (Base 50)    
Moisture  
Dew Point 66 °F    
Average Humidity 71    
Maximum Humidity 90    
Minimum Humidity 51    
Precipitation  
Precipitation T in 0.05 in 1.35 in (1958)
Month to date precipitation T 0.15  
Year to date precipitation T 0.15  
Snow  
Snow 0.00 in - - ()
Month to date snowfall 0.0  
Since 1 July snowfall 0.0  
Snow Depth 0.00 in    
Sea Level Pressure  
Sea Level Pressure 30.09 in    
Wind  
Wind Speed 4 mph (SE)    
Max Wind Speed 14 mph    
Max Gust Speed 23 mph    
Visibility 10 miles    
Events      
T = Trace of Precipitation, MM = Missing Value Source: NWS Daily Summary

Daily Weather History Graph

Daily Weather History Graph

Search for Another Location

Airport:

Trip Planner

Search our weather history database for the weather conditions in past years. The results will help you decide how hot, cold, wet, or windy it might be!

Date:

Astronomy

Jan. 03, 2013 Rise Set
Actual Time 7:08 AM EST 5:43 PM EST
Civil Twilight 6:43 AM EST 6:08 PM EST
Nautical Twilight 6:14 AM EST 6:37 PM EST
Astronomical Twilight 5:46 AM EST 7:05 PM EST
Moon 11:35 PM EST (1/3) 10:57 AM EST (1/3)
Length of Visible Light 11h 25m
Length of Day
10h 34m
Waning Gibbous, 65% of the Moon is Illuminated
Jan 3
Waning Gibbous
Jan 4
Last Quarter
Jan 11
New
Jan 18
First Quarter
Jan 26
Full

Hourly Weather History & Observations

Time (EST) Temp. Heat Index Dew Point Humidity Pressure Visibility Wind Dir Wind Speed Gust Speed Precip Events Conditions
12:53 AM 71.1 °F - 66.9 °F 87% 30.06 in 10.0 mi Calm Calm - N/A   Mostly Cloudy
1:53 AM 71.1 °F - 66.9 °F 87% 30.06 in 10.0 mi Calm Calm - N/A   Mostly Cloudy
2:53 AM 71.1 °F - 66.9 °F 87% 30.06 in 10.0 mi Calm Calm - N/A   Mostly Cloudy
3:53 AM 70.0 °F - 66.9 °F 90% 30.06 in 10.0 mi Calm Calm - N/A   Mostly Cloudy
4:53 AM 70.0 °F - 66.9 °F 90% 30.06 in 10.0 mi North 3.5 mph - N/A   Mostly Cloudy
5:53 AM 70.0 °F - 66.0 °F 87% 30.08 in 10.0 mi Calm Calm - N/A   Mostly Cloudy
6:53 AM 70.0 °F - 66.0 °F 87% 30.09 in 10.0 mi Calm Calm - N/A   Mostly Cloudy
7:53 AM 70.0 °F - 66.0 °F 87% 30.12 in 10.0 mi Calm Calm - N/A   Scattered Clouds
8:53 AM 73.0 °F - 66.9 °F 81% 30.12 in 10.0 mi East 3.5 mph - N/A   Scattered Clouds
9:53 AM 75.9 °F - 66.9 °F 74% 30.13 in 10.0 mi SE 3.5 mph - N/A   Scattered Clouds
10:53 AM 79.0 °F - 64.9 °F 62% 30.12 in 10.0 mi SSE 10.4 mph - N/A   Mostly Cloudy
11:53 AM 80.1 °F 81.9 °F 64.9 °F 60% 30.10 in 10.0 mi SE 8.1 mph - N/A   Scattered Clouds
12:53 PM 81.0 °F 82.5 °F 64.0 °F 56% 30.07 in 10.0 mi SSE 9.2 mph - N/A   Mostly Cloudy
1:53 PM 82.0 °F 83.1 °F 63.0 °F 52% 30.05 in 10.0 mi SSE 10.4 mph 17.3 mph N/A   Scattered Clouds
2:53 PM 81.0 °F 82.2 °F 63.0 °F 54% 30.05 in 10.0 mi SE 10.4 mph - 0.00 in   Scattered Clouds
3:53 PM 80.1 °F 81.5 °F 63.0 °F 56% 30.06 in 10.0 mi SSE 8.1 mph 17.3 mph N/A   Scattered Clouds
4:53 PM 78.1 °F - 64.0 °F 62% 30.08 in 10.0 mi SSE 8.1 mph - N/A   Scattered Clouds
5:53 PM 75.9 °F - 64.9 °F 69% 30.09 in 10.0 mi SSE 5.8 mph - N/A   Scattered Clouds
6:53 PM 73.9 °F - 66.0 °F 76% 30.11 in 10.0 mi SSE 5.8 mph - N/A   Scattered Clouds
7:53 PM 73.0 °F - 66.0 °F 79% 30.13 in 10.0 mi SSE 3.5 mph - N/A   Clear
8:53 PM 73.0 °F - 66.9 °F 81% 30.14 in 10.0 mi SSE 5.8 mph - N/A   Clear
9:53 PM 73.0 °F - 66.9 °F 81% 30.15 in 10.0 mi Variable 3.5 mph - N/A   Scattered Clouds
10:53 PM 71.1 °F - 66.0 °F 84% 30.14 in 10.0 mi SSE 3.5 mph - N/A   Partly Cloudy
11:53 PM 71.1 °F - 66.9 °F 87% 30.14 in 10.0 mi South 3.5 mph - N/A   Partly Cloudy